This demonstration page uses our WeatherBlox Daily Observations layout. Learn more.

Left ArrowRight Arrow

41.86663, -103.66717

Hourly Observations for February 13, 2019

Temp ( °F °C ) Dew Point ( °F °C ) Humidity (%) Winds ( mph kmh ) Pressure ( in mb ) Visibility ( mi km ) Precip ( " mm )
12:53 am 00:53 Clear 29 -1.7 19 -7.2 66 66 N N/A 29.95 1014 10 16 N/A
1:53 am 01:53 Clear 30 -1.1 20 -6.7 66 66 ENE 7 11 29.91 1013 10 16 N/A
2:53 am 02:53 Partly Cloudy 30 -1.1 20 -6.7 66 66 ENE 6 9 29.86 1011 10 16 N/A
3:53 am 03:53 Clear 29 -1.7 20 -6.7 69 69 N 6 9 29.83 1010 10 16 N/A
4:53 am 04:53 Clear 30 -1.1 19 -7.2 64 64 ENE 6 9 29.81 1010 10 16 N/A
5:53 am 05:53 Clear 29 -1.7 20 -6.7 69 69 NNW 5 7 29.80 1009 10 16 N/A
6:53 am 06:53 Partly Cloudy 33 0.6 19 -7.2 56 56 N 5 7 29.76 1008 10 16 N/A
7:53 am 07:53 Partly Cloudy 35 1.7 21 -6.1 57 57 N 10 17 29.75 1008 10 16 N/A
8:53 am 08:53 Mostly Sunny 37 2.8 23 -5 57 57 NNE 5 7 29.74 1007 10 16 N/A
9:53 am 09:53 Partly Cloudy 39 3.9 24 -4.4 55 55 E 8 13 29.73 1007 10 16 N/A
10:53 am 10:53 Sunny 45 7.2 20 -6.7 37 37 SSE 5 7 29.67 1005 10 16 N/A
11:53 am 11:53 Sunny 53 11.7 19 -7.2 26 26 VRB 3 6 29.59 1002 N/A N/A
12:53 pm 12:53 Sunny 58 14.4 15 -9.4 18 18 S 3 6 29.52 1000 10 16 N/A
1:53 pm 13:53 Mostly Sunny 61 16.1 14 -10 16 16 VRB 6 9 29.46 998 10 16 N/A
2:53 pm 14:53 Cloudy 60 15.6 13 -10.6 16 16 undefined N/A 29.44 997 10 16 N/A
3:53 pm 15:53 Partly Cloudy 53 11.7 18 -7.8 25 25 N 8 13 29.47 998 10 16 N/A
4:53 pm 16:53 Sunny 47 8.3 21 -6.1 36 36 NNW 5 7 29.51 999 10 16 N/A
5:53 pm 17:53 Clear 51 10.6 26 -3.3 38 38 WNW 13 20 29.51 999 10 16 N/A
6:53 pm 18:53 Clear 47 8.3 26 -3.3 44 44 WNW 8 13 29.50 999 10 16 N/A
7:53 pm 19:53 Clear 47 8.3 28 -2.2 48 48 WNW 12 19 29.50 999 10 16 N/A
8:53 pm 20:53 Clear 43 6.1 27 -2.8 53 53 WNW 6 9 29.50 999 10 16 N/A
9:53 pm 21:53 Clear 39 3.9 27 -2.8 62 62 WNW 8 13 29.51 999 10 16 N/A
10:53 pm 22:53 Clear 37 2.8 26 -3.3 65 65 NW 5 7 29.50 999 10 16 N/A
11:53 pm 23:53 Clear 40 4.4 28 -2.2 63 63 W 9 15 29.46 998 10 16 N/A

Powered by AerisWeather